{"data":{"norad_id":65688,"epoch":"2026-09-20T03:42:42.403680Z","epoch_age_seconds":138620,"freshness":"FRESH","line1":"1 65688U 25212N   26263.15465745  .00009991  00000+0  33309-3 0  9999","line2":"2 65688  53.1583 161.2196 0000989 190.2068 169.8914 15.31717509 57030","mean_motion":15.31717509,"eccentricity":9.89e-5,"inclination_deg":53.1583,"raan_deg":161.2196,"arg_perigee_deg":190.2068,"mean_anomaly_deg":169.8914,"bstar":0.00033309,"rev_number":5703,"period_min":94.012113300195,"perigee_km":470.01045353198,"apogee_km":471.36515107787,"semimajor_km":6848.8248023049,"source":"CELESTRAK","updated_at":"2026-09-21T09:00:35.687356Z"}}